Appleton, MN

7:44 AM CDT on August 24, 2016 (GMT -0500)
Appleton Municipal

Weather History for KAQP - May, 2013

Change the Weather History Date:

Monday, May 13, 2013

  Actual Average Record
Temperature  
Mean Temperature 68 °F -  
Max Temperature 89 °F 65 °F 89 °F (2007)
Min Temperature 48 °F 42 °F 26 °F (1997)
Cooling Degree Days 4    
Growing Degree Days 18 (Base 50)    
Moisture  
Dew Point 32 °F    
Average Humidity 31    
Maximum Humidity 48    
Minimum Humidity 15    
Precipitation  
Precipitation 0.00 in - - ()
Sea Level Pressure  
Sea Level Pressure 29.84 in    
Wind  
Wind Speed 11 mph (South)    
Max Wind Speed 23 mph    
Max Gust Speed 29 mph    
Visibility 10 miles    
Events      
Averages and records for this station are not official NWS values.
T = Trace of Precipitation, MM = Missing Value Source: NWS Daily Summary

Daily Weather History Graph

Daily Weather History Graph

Search for Another Location

Airport or City:

Trip Planner

Search our weather history database for the weather conditions in past years. The results will help you decide how hot, cold, wet, or windy it might be!

Date:

Astronomy

May. 13, 2013 Rise Set
Actual Time 5:56 AM CDT 8:45 PM CDT
Civil Twilight 5:22 AM CDT 9:19 PM CDT
Nautical Twilight 4:38 AM CDT 10:03 PM CDT
Astronomical Twilight 3:48 AM CDT 10:54 PM CDT
Moon 8:42 AM CDT (5/13) 11:55 PM CDT (5/13)
Length of Visible Light 15h 57m
Length of Day
14h 48m
Waxing Crescent, 12% of the Moon is Illuminated
May 13
Waxing Crescent
May 17
First Quarter
May 24
Full
May 31
Last Quarter
Jun 8
New

Hourly Weather History & Observations

Time (CDT) Temp. Dew Point Humidity Pressure Visibility Wind Dir Wind Speed Gust Speed Precip Events Conditions
12:13 AM 50.0 °F 19.4 °F 30% 30.06 in 10.0 mi SE 8.1 mph - N/A   Clear
12:33 AM 51.8 °F 19.4 °F 28% 30.06 in 10.0 mi SE 8.1 mph - N/A   Clear
12:53 AM 50.0 °F 19.4 °F 30% 30.06 in 10.0 mi SE 9.2 mph - N/A   Clear
1:13 AM 50.0 °F 19.4 °F 30% 30.05 in 10.0 mi SE 9.2 mph - N/A   Clear
1:33 AM 50.0 °F 19.4 °F 30% 30.05 in 10.0 mi SE 8.1 mph - N/A   Clear
1:53 AM 48.2 °F 19.4 °F 32% 30.05 in 10.0 mi SSE 6.9 mph - N/A   Clear
2:14 AM 48.2 °F 19.4 °F 32% 30.05 in 10.0 mi SSE 9.2 mph - N/A   Clear
2:33 AM 48.2 °F 19.4 °F 32% 30.05 in 10.0 mi SSE 8.1 mph - N/A   Clear
2:53 AM 48.2 °F 21.2 °F 34% 30.04 in 10.0 mi SSE 9.2 mph - N/A   Clear
3:13 AM 48.2 °F 21.2 °F 34% 30.03 in 10.0 mi SSE 9.2 mph - N/A   Clear
3:33 AM 48.2 °F 21.2 °F 34% 30.02 in 10.0 mi SSE 11.5 mph - N/A   Clear
3:53 AM 50.0 °F 19.4 °F 30% 30.02 in 10.0 mi SSE 11.5 mph - N/A   Scattered Clouds
4:13 AM 50.0 °F 19.4 °F 30% 30.02 in 10.0 mi SSE 11.5 mph - N/A   Scattered Clouds
4:33 AM 50.0 °F 19.4 °F 30% 30.01 in 10.0 mi SSE 12.7 mph - N/A   Clear
4:53 AM 50.0 °F 21.2 °F 32% 30.02 in 10.0 mi SSE 8.1 mph - N/A   Scattered Clouds
5:13 AM 48.2 °F 21.2 °F 34% 30.01 in 10.0 mi SSE 8.1 mph - N/A   Scattered Clouds
5:34 AM 50.0 °F 21.2 °F 32% 29.99 in 10.0 mi SSE 9.2 mph - N/A   Clear
5:53 AM 48.2 °F 23.0 °F 37% 29.99 in 10.0 mi SSE 8.1 mph - N/A   Clear
6:13 AM 48.2 °F 24.8 °F 40% 29.99 in 10.0 mi SE 6.9 mph - N/A   Clear
6:33 AM 48.2 °F 26.6 °F 43% 29.99 in 10.0 mi SE 6.9 mph - N/A   Clear
6:53 AM 48.2 °F 26.6 °F 43% 29.98 in 10.0 mi ESE 8.1 mph - N/A   Clear
7:13 AM 48.2 °F 26.6 °F 43% 29.98 in 10.0 mi ESE 10.4 mph - N/A   Scattered Clouds
7:33 AM 50.0 °F 26.6 °F 40% 29.95 in 10.0 mi SE 12.7 mph - N/A   Mostly Cloudy
7:54 AM 51.8 °F 26.6 °F 38% 29.95 in 10.0 mi SE 9.2 mph - N/A   Mostly Cloudy
8:13 AM 53.6 °F 26.6 °F 35% 29.95 in 10.0 mi SSE 11.5 mph - N/A   Clear
8:33 AM 53.6 °F 24.8 °F 33% 29.93 in 10.0 mi SSE 13.8 mph 20.7 mph N/A   Clear
8:53 AM 55.4 °F 26.6 °F 33% 29.92 in 10.0 mi SSE 13.8 mph 21.9 mph N/A   Clear
9:14 AM 57.2 °F 26.6 °F 31% 29.91 in 10.0 mi SSE 15.0 mph 20.7 mph N/A   Clear
9:33 AM 57.2 °F 26.6 °F 31% 29.90 in 10.0 mi South 15.0 mph 20.7 mph N/A   Clear
9:52 AM 59.0 °F 28.4 °F 31% 29.89 in 10.0 mi SSE 15.0 mph - N/A   Clear
9:55 AM 60.8 °F 28.4 °F 29% 29.89 in 10.0 mi SSE 16.1 mph - N/A   Clear
10:14 AM 60.8 °F 30.2 °F 31% 29.88 in 10.0 mi SSE 15.0 mph - N/A   Clear
10:30 AM 62.6 °F 30.2 °F 30% 29.87 in 10.0 mi SSE 16.1 mph 20.7 mph N/A   Clear
10:53 AM 66.2 °F 33.8 °F 30% 29.84 in 10.0 mi SSE 16.1 mph 23.0 mph N/A   Clear
11:13 AM 69.8 °F 37.4 °F 31% 29.83 in 10.0 mi South 20.7 mph 26.5 mph N/A   Clear
11:33 AM 71.6 °F 39.2 °F 31% 29.82 in 10.0 mi South 17.3 mph 26.5 mph N/A   Clear
11:53 AM 71.6 °F 39.2 °F 31% 29.81 in 10.0 mi South 16.1 mph 27.6 mph N/A   Clear
12:13 PM 71.6 °F 41.0 °F 33% 29.80 in 10.0 mi South 17.3 mph 24.2 mph N/A   Clear
12:33 PM 73.4 °F 39.2 °F 29% 29.79 in 10.0 mi South 19.6 mph 28.8 mph N/A   Clear
12:53 PM 75.2 °F 41.0 °F 29% 29.77 in 10.0 mi South 17.3 mph 25.3 mph N/A   Clear
1:14 PM 75.2 °F 41.0 °F 29% 29.76 in 10.0 mi South 20.7 mph 28.8 mph N/A   Clear
1:33 PM 77.0 °F 42.8 °F 29% 29.77 in 10.0 mi South 18.4 mph 26.5 mph N/A   Clear
1:53 PM 78.8 °F 41.0 °F 26% 29.75 in 10.0 mi SSW 20.7 mph 26.5 mph N/A   Clear
2:13 PM 80.6 °F 41.0 °F 24% 29.74 in 10.0 mi SSW 20.7 mph 25.3 mph N/A   Clear
2:34 PM 80.6 °F 42.8 °F 26% 29.75 in 10.0 mi SSW 18.4 mph 25.3 mph N/A   Clear
3:33 PM 84.2 °F 44.6 °F 25% 29.71 in 10.0 mi SW 12.7 mph 19.6 mph N/A   Clear
3:53 PM 86.0 °F 42.8 °F 22% 29.70 in 10.0 mi SW 13.8 mph 19.6 mph N/A   Clear
4:13 PM 86.0 °F 42.8 °F 22% 29.69 in 10.0 mi WSW 13.8 mph 24.2 mph N/A   Clear
4:33 PM 87.8 °F 42.8 °F 21% 29.69 in 10.0 mi West 15.0 mph 24.2 mph N/A   Clear
4:53 PM 87.8 °F 42.8 °F 21% 29.67 in 10.0 mi West 13.8 mph - N/A   Clear
5:13 PM 87.8 °F 42.8 °F 21% 29.66 in 10.0 mi West 11.5 mph - N/A   Clear
5:33 PM 87.8 °F 42.8 °F 21% 29.66 in 10.0 mi West 11.5 mph 16.1 mph N/A   Clear
5:53 PM 89.6 °F 42.8 °F 20% 29.65 in 10.0 mi West 12.7 mph 17.3 mph N/A   Clear
6:33 PM 89.6 °F 44.6 °F 21% 29.63 in 10.0 mi WSW 8.1 mph - N/A   Clear
7:13 PM 89.6 °F 35.6 °F 15% 29.63 in 10.0 mi West 23.0 mph 28.8 mph N/A   Clear
7:34 PM 87.8 °F 35.6 °F 16% 29.63 in 10.0 mi WNW 19.6 mph 25.3 mph N/A   Clear
7:54 PM 87.8 °F 35.6 °F 16% 29.64 in 10.0 mi WNW 18.4 mph 21.9 mph N/A   Clear
8:13 PM 84.2 °F 37.4 °F 19% 29.64 in 10.0 mi WNW 12.7 mph - N/A   Clear
8:33 PM 80.6 °F 37.4 °F 21% 29.64 in 10.0 mi West 11.5 mph - N/A   Clear
8:53 PM 75.2 °F 39.2 °F 27% 29.65 in 10.0 mi West 10.4 mph - N/A   Clear
9:14 PM 71.6 °F 39.2 °F 31% 29.65 in 10.0 mi West 5.8 mph - N/A   Clear
9:33 PM 68.0 °F 41.0 °F 37% 29.66 in 10.0 mi West 8.1 mph - N/A   Clear
9:54 PM 66.2 °F 39.2 °F 37% 29.67 in 10.0 mi West 6.9 mph - N/A   Clear
10:14 PM 64.4 °F 39.2 °F 40% 29.67 in 10.0 mi West 6.9 mph - N/A   Clear
10:33 PM 62.6 °F 39.2 °F 42% 29.68 in 10.0 mi West 4.6 mph - N/A   Clear
10:53 PM 62.6 °F 41.0 °F 45% 29.68 in 10.0 mi West 5.8 mph - N/A   Clear
11:13 PM 62.6 °F 41.0 °F 45% 29.68 in 10.0 mi West 5.8 mph - N/A   Clear
11:33 PM 60.8 °F 41.0 °F 48% 29.68 in 10.0 mi West 5.8 mph - N/A   Clear
11:53 PM 60.8 °F 41.0 °F 48% 29.68 in 10.0 mi WSW 5.8 mph - N/A   Clear